Location: Ayer Observatory
(42.2600°N, 71.0700°W)
Time: 03:07:53
(UTC-04:00)

ISS - Visible Passes

Search period start: 16 October 2019 00:00
Search period end: 26 October 2019 00:00
Orbit: 411 x 421 km, 51.6° (Epoch: 16 October)

Date Brightness Start Highest point End Pass type
(mag) Time Alt. Az. Time Alt. Az. Time Alt. Az.
23 Oct -1.2 06:13:29 10° S 06:16:08 22° SE 06:18:48 10° E visible
24 Oct -0.7 05:26:08 10° SSE 05:27:46 13° SE 05:29:22 10° ESE visible
25 Oct -3.2 06:12:12 10° SW 06:15:31 60° SE 06:18:51 10° ENE visible
